Volver al catálogo

STARLINK-36441

ActivoComunicacionesVLEO
NORAD 67469·PAYLOAD·🇺🇸 United States

Lanzado Jan 14, 2026 desde Cape Canaveral Space Force Station

Loading…

Próximos Pases (próximas 24 horas)

TLE

ActualizadoSource: CelesTrak SupGP

Época: Sep 14, 2026, 21:32 UTC

1 67469C 26008AA  26257.89770833  .00026934  00000+0  97549-3 0  2572
2 67469  43.0021 216.9818 0001388 261.9667 165.3499 15.27566824    10

Sigue STARLINK-36441 en tiempo real con AllMySat

Download on the App Store